Location: Newark
(54.1978°N, 18.3264°E)
Time: 00:59:15
(UTC+00:00)

OTV 5 (USA 277) - Pass Details

Date: 01 September 2019
Orbit: 310 x 324 km, 54.5° (Epoch: 08 October)

Event Time Altitude Azimuth Distance (km) Brightness Sun altitude
Rises 19:51:55 0° 278° (W) 2,042 ? -17.7°
Reaches altitude 10° 19:53:52 10° 279° (W) 1,211 ? -17.9°
Enters shadow 19:56:15 67° 276° (W) 344 ? -18.1°
